STARLINK-11272, 60723

Orbit data source: Space-Track

STARLINK-11272, 60723 is a payload satellite owned by SpaceX/Seattle (US) in LEO that was launched on Wed, 28 Aug 2024 UTC via an FALCON 9 launch vehicle from the Air Force Eastern Test Range (AFETR). Payload-class satellites include a variety of spacecraft equipped with specific instruments for various scientific and technological missions. These include communications satellites like Starlink; space stations such as the ISS; scientific satellites like the Hubble; Earth observation satellites from companies like Planet Labs, Umbra, and HawkEye 360; GPS; miniature CubeSats for education and research; and military/defense satellites.

Loading next visibility...
Identifier
60723, 2024-152D
Orbit
LEO
Last TLE update
18 hours ago
Origin
Manufacturer
SpaceX/Seattle
Mission
Operational Commercial Communications
Bus & Motor
STARLINK V2M, Unknown motor
Mass
730 kg wet, ~700 kg dry
Launch date (UTC)
2024-08-28 (10 months ago)
Launch vehicle
FALCON 9
Launch site
Air Force Eastern Test Range (AFETR)
Object type
Payload
Rocket body
Debris
Shape & HBR
Box + 2 Pan, 29 m
Radar Cross Section
36.964 m², Large (>1 m²)

Expand to show TLE details & history

TLE from 18 hours ago
0 STARLINK-11272
1 60723U 24152D   25181.62151940  .00000421  00000-0  83279-5 0  9998
2 60723  53.1596 278.9553 0000710  88.3072 271.8027 15.69720274 49243
Epoch: 2025-06-30T14:54Z
TLE epoch observation values (Epoch: 2025-06-30T14:54:59.276Z)
Latitude
-0.00002°
Longitude
136.27961°
Altitude
360.597 km
Speed
7.694 km/s
True Right ascension
18h 35m 49s
True Declination
0° 00' 00"
Sunlit
Object was in full shadow at epoch
Visualization orbit readout
Latitude
-52.80916°
Longitude
31.65774°
Altitude
378.498 km
Speed
7.682 km/s
Apparent Right ascension
09h 54m 04s
Apparent Declination
-48° 49' 45"
Sunlit
Object is in daylight
Visualization observer readout
Local Sidereal Time
20:28:44
Azimuth
232.484° WSW
Elevation
-72.426°
Doppler factor
1
Orbital elements
Apogee altitude
360.437 km
Perigee altitude
359.48 km
Semi-major axis
6,738.095 km
Eccentricity
0.00007
Inclination
53.1596°
RAAN
278.9553°
Arg. of periapsis
88.3072°
True anomaly
Unknown
Mean anomaly
271.8027°
Eccentric anomaly
Unknown
Mean motion
3.92408 °/min
Orbital period
91.74 mins
BSTAR
0.0000083279
Loading maneuver chart data...
Loading SW <> Apogee altitude chart data...
Loading historical data...
Loading historical data...
Loading historical data...
Loading historical data...
Loading historical data...
Loading historical data...
Loading historical data...

STARLINK-11272 Visibility forecast

Observer location: undefined°, undefined°

Span
Click to sort rows by Start time (UTC) header in descending order
Start Az.
Max El. time (UTC)
Max El. Az.
Max El.
End time (UTC)
End Az.
5 mins2025-07-01 09:26:32.834Z239.207° WSW2025-07-01 09:29:32.834Z6.672° NNE39.766°2025-07-01 09:31:32.834Z43.05° NE
4 mins2025-07-01 15:52:32.834Z318.547° NNW2025-07-01 15:53:32.834Z342.036° N41.555°2025-07-01 15:56:32.834Z124.844° SE
4 mins2025-07-02 08:21:32.834Z184.844° SSW2025-07-02 08:22:32.834Z149.297° SSE29.87°2025-07-02 08:25:32.834Z65.818° ENE
|